Location: Unspecified
(38.9820°N, 94.4650°W)
Time: 22:08:45
(UTC-05:00)

ISS - Visible Passes

Search period start: 24 April 2018 00:00
Search period end: 04 May 2018 00:00
Orbit: 403 x 406 km, 51.6° (Epoch: 25 April)

Date Brightness Start Highest point End Pass type
(mag) Time Alt. Az. Time Alt. Az. Time Alt. Az.
30 Apr -1.4 05:19:14 10° S 05:21:26 17° SE 05:23:38 10° E visible
02 May -3.0 05:10:51 17° SSW 05:13:00 42° SE 05:16:07 10° ENE visible
03 May -2.0 04:20:39 21° SE 04:20:47 21° SE 04:23:20 10° E visible
